Have a Safe July 4th! 

Flight Track Log - Related Links

Times and Time Zones

All times are in EDT time to prevent confusion due to time zone crossing. See the USC105 flight status page for this flight to view local times or setup timezone preferences in your user account.

Time Position Orientation Groundspeed Altitude Reporting Facility
EDT Latitude Longitude Course Direction KTS MPH feet Rate Location/Type
Tue 09:59:33 PM 39.8033 -82.9444 266° West 117 135 1,200  Level Indianapolis Center
Tue 10:00:34 PM 39.8019 -82.9689 266° West 138 159 2,500 1,145 Climbing Indianapolis Center
Tue 10:01:23 PM 39.8350 -82.9753 352° North 142 163 3,300 816 Climbing Indianapolis Center
Tue 10:02:17 PM 39.8661 -82.9689 North 154 177 3,900 672 Climbing Indianapolis Center
Tue 10:03:19 PM 39.9128 -82.9311 32° Northeast 165 190 4,600 585 Climbing Indianapolis Center
Tue 10:04:20 PM 39.9569 -82.8969 31° Northeast 177 204 5,100 443 Climbing Indianapolis Center
Tue 10:05:21 PM 40.0022 -82.8606 32° Northeast 187 215 5,500 488 Climbing Indianapolis Center
Tue 10:06:23 PM 40.0486 -82.8242 31° Northeast 192 221 6,100 714 Climbing Indianapolis Center
Tue 10:07:27 PM 40.0986 -82.7875 29° Northeast 192 221 7,000 393 Climbing Indianapolis Center
Tue 10:08:25 PM 40.1458 -82.7508 31° Northeast 205 236 6,900  Descending Indianapolis Center
Tue 10:08:40 PM 40.1603 -82.7400 30° Northeast 214 246 7,000 97 Climbing Indianapolis Center
Tue 10:09:27 PM 40.1983 -82.7103 31° Northeast 216 249 7,000 -56 Level Indianapolis Center
Tue 10:10:28 PM 40.2536 -82.6694 29° Northeast 211 243 6,900  Descending Indianapolis Center
Tue 10:11:29 PM 40.3083 -82.6367 25° Northeast 214 246 7,000  Climbing Indianapolis Center
Tue 10:12:30 PM 40.3583 -82.5925 34° Northeast 218 251 6,900 -49 Descending Indianapolis Center
Tue 10:13:32 PM 40.4106 -82.5494 32° Northeast 216 249 6,900  Level Indianapolis Center
Tue 10:14:33 PM 40.4639 -82.5117 28° Northeast 217 250 6,900 49 Level Indianapolis Center
Tue 10:15:35 PM 40.5144 -82.4697 32° Northeast 215 247 7,000  Climbing Indianapolis Center
Tue 10:16:36 PM 40.5669 -82.4317 29° Northeast 213 245 6,900  Descending Indianapolis Center
Tue 10:17:37 PM 40.6181 -82.3917 31° Northeast 212 244 7,000  Climbing Indianapolis Center
Tue 10:18:38 PM 40.6678 -82.3472 34° Northeast 213 245 6,900  Descending Indianapolis Center
Tue 10:19:40 PM 40.7222 -82.3122 26° Northeast 215 247 7,000  Climbing Indianapolis Center
Tue 10:20:41 PM 40.7758 -82.2700 31° Northeast 221 254 6,900 -49 Descending Indianapolis Center
Tue 10:21:42 PM 40.8281 -82.2244 33° Northeast 222 255 6,900 49 Level Indianapolis Center
Tue 10:22:44 PM 40.8831 -82.1856 28° Northeast 221 254 7,000 49 Climbing Indianapolis Center
Tue 10:23:45 PM 40.9356 -82.1431 31° Northeast 221 254 7,000  Level Indianapolis Center
Tue 10:24:46 PM 40.9992 -82.0917 31° Northeast 226 260 7,000  Level Indianapolis Center
Tue 10:25:42 PM 41.0478 -82.0589 27° Northeast 217 250 7,000  Level Cleveland Center

Login

Don't have an account? Register now (free) for customized features, flight alerts, and more!